[Date Prev][Date Next][Thread Prev][Thread Next] - [Date Index][Thread Index][Author Index]

2 Line ISS Keps 5-29



ISS
1 25544U 98067A   04145.46666667  .00015980  00000-0  14386-3 0  8448
2 25544  51.6336  86.6155 0006131 145.9307   7.3985 15.68371390314594


----
Via the sarex mailing list at AMSAT.ORG courtesy of AMSAT-NA.
To unsubscribe, send "unsubscribe sarex" to Majordomo@amsat.org



AMSAT Top AMSAT Home